This demonstration page uses our WeatherBlox Daily Observations layout. Learn more.

Left ArrowRight Arrow

Hourly Observations for December 5, 2021

Temp ( °F °C ) Dew Point ( °F °C ) Humidity (%) Winds ( mph kmh ) Pressure ( in mb ) Visibility ( mi km ) Precip ( " mm )
12:51 am 00:51 Clear 44 6.7 29 -1.7 55 55 ESE 3 6 30.00 1016 10 16 0.00 0.00
1:51 am 01:51 Clear 43 6.1 29 -1.7 58 58 E 6 9 29.98 1015 10 16 0.00 0.00
2:51 am 02:51 Clear 41 5 28 -2.2 60 60 SSE 3 6 29.98 1015 10 16 0.00 0.00
3:51 am 03:51 Clear 40 4.4 28 -2.2 63 63 Calm 29.98 1015 10 16 0.00 0.00
4:51 am 04:51 Clear 37 2.8 27 -2.8 67 67 NE 3 6 29.99 1016 10 16 0.00 0.00
5:51 am 05:51 Clear 36 2.2 27 -2.8 70 70 Calm 30.01 1016 10 16 0.00 0.00
6:51 am 06:51 Clear 36 2.2 26 -3.3 67 67 S 3 6 30.02 1017 10 16 0.00 0.00
7:51 am 07:51 Sunny 40 4.4 27 -2.8 60 60 Calm 30.04 1017 10 16 0.00 0.00
8:51 am 08:51 Sunny 48 8.9 29 -1.7 48 48 Calm 30.05 1018 10 16 0.00 0.00
9:51 am 09:51 Sunny 52 11.1 31 -0.6 45 45 SW 5 7 30.05 1018 10 16 0.00 0.00
10:51 am 10:51 Sunny 56 13.3 33 0.6 42 42 Calm 30.03 1017 10 16 0.00 0.00
11:51 am 11:51 Sunny 62 16.7 33 0.6 34 34 Calm 29.99 1016 10 16 0.00 0.00
12:51 pm 12:51 Sunny 65 18.3 33 0.6 31 31 W 5 7 29.94 1014 10 16 0.00 0.00
1:51 pm 13:51 Sunny 68 20 32 0 26 26 W 8 13 29.91 1013 10 16 0.00 0.00
2:51 pm 14:51 Sunny 69 20.6 31 -0.6 24 24 W 5 7 29.91 1013 10 16 0.00 0.00
3:51 pm 15:51 Sunny 70 21.1 29 -1.7 22 22 W 6 9 29.89 1012 10 16 0.00 0.00
4:51 pm 16:51 Sunny 67 19.4 28 -2.2 23 23 W 6 9 29.91 1013 10 16 0.00 0.00
5:51 pm 17:51 Clear 57 13.9 27 -2.8 32 32 NW 6 9 29.94 1014 10 16 0.00 0.00
6:51 pm 18:51 Clear 52 11.1 27 -2.8 38 38 NW 9 15 29.97 1015 10 16 0.00 0.00
7:51 pm 19:51 Clear 50 10 25 -3.9 38 38 WNW 5 7 29.98 1015 10 16 0.00 0.00
8:51 pm 20:51 Clear 50 10 25 -3.9 38 38 ESE 5 7 29.98 1015 10 16 0.00 0.00
9:51 pm 21:51 Clear 46 7.8 25 -3.9 44 44 E 5 7 30.01 1016 10 16 0.00 0.00
10:51 pm 22:51 Clear 45 7.2 25 -3.9 46 46 S 5 7 30.02 1017 10 16 0.00 0.00
11:51 pm 23:51 Clear 43 6.1 25 -3.9 49 49 E 7 11 30.01 1016 10 16 0.00 0.00

Powered by AerisWeather